| time (UTC) | temp F | wind direction | speed knots | gust knots | rain 1hr in | rain 24hr in | rain mn in | humidity % | barometer mb |
| 20260905174514 | 88 | 150 | 0.9 | 4.3 | 0.00 | 0.03 | 0.00 | 24 | 1017.8 |
| 20260905173013 | 88 | 122 | 0.0 | 2.6 | 0.00 | 0.03 | 0.00 | 25 | 1017.8 |
| 20260905171511 | 86 | 114 | 1.7 | 7.0 | 0.00 | 0.03 | 0.00 | 26 | 1017.8 |
| 20260905170010 | 86 | 122 | 0.9 | 6.1 | 0.00 | 0.03 | 0.00 | 27 | 1017.8 |
| 20260905164507 | 85 | 129 | 1.7 | 5.2 | 0.00 | 0.03 | 0.00 | 27 | 1017.8 |
| 20260905163005 | 85 | 137 | 0.9 | 2.6 | 0.00 | 0.03 | 0.00 | 28 | 1017.9 |
| 20260905161502 | 84 | 132 | 0.9 | 5.2 | 0.00 | 0.03 | 0.00 | 29 | 1017.9 |
| 20260905154603 | 82 | 130 | 0.9 | 3.5 | 0.00 | 0.03 | 0.00 | 31 | 1017.8 |
| 20260905153054 | 81 | 135 | 0.0 | 3.5 | 0.00 | 0.03 | 0.00 | 33 | 1017.7 |
| 20260905151550 | 79 | 101 | 0.0 | 1.7 | 0.00 | 0.03 | 0.00 | 35 | 1017.7 |
| 20260905150045 | 76 | 105 | 0.0 | 0.9 | 0.00 | 0.03 | 0.00 | 41 | 1017.8 |
| 20260905144541 | 73 | 119 | 0.0 | 0.9 | 0.00 | 0.03 | 0.00 | 44 | 1017.9 |
| 20260905143037 | 69 | 263 | 0.0 | 0.0 | 0.00 | 0.03 | 0.00 | 53 | 1018.0 |
| 20260905141533 | 65 | 268 | 0.0 | 0.9 | 0.00 | 0.03 | 0.00 | 58 | 1018.0 |
| 20260905140032 | 64 | 268 | 0.0 | 1.7 | 0.00 | 0.03 | 0.00 | 60 | 1017.9 |
| 20260905134532 | 65 | 116 | 0.0 | 2.6 | 0.00 | 0.03 | 0.00 | 57 | 1017.8 |
| 20260905133032 | 63 | 138 | 0.0 | 1.7 | 0.00 | 0.03 | 0.00 | 60 | 1017.3 |
| 20260905131531 | 62 | 138 | 0.0 | 2.6 | 0.00 | 0.03 | 0.00 | 65 | 1017.2 |
| 20260905130030 | 61 | 245 | 0.0 | 2.6 | 0.00 | 0.03 | 0.00 | 69 | 1017.0 |
| 20260905124528 | 59 | 161 | 0.0 | 5.2 | 0.00 | 0.03 | 0.00 | 74 | 1016.6 |
| 20260905123029 | 59 | 114 | 0.9 | 4.3 | 0.00 | 0.03 | 0.00 | 78 | 1016.5 |
| 20260905121527 | 57 | 129 | 0.0 | 1.7 | 0.00 | 0.03 | 0.00 | 80 | 1016.5 |
| 20260905120037 | 57 | 276 | 0.0 | 1.7 | 0.00 | 0.03 | 0.00 | 78 | 1016.5 |
| 20260905114526 | 57 | 138 | 0.0 | 0.9 | 0.00 | 0.03 | 0.00 | 78 | 1016.4 |
| 20260905113029 | 57 | 259 | 0.0 | 0.9 | 0.00 | 0.03 | 0.00 | 77 | 1016.4 |
| 20260905111544 | 57 | 259 | 0.0 | 0.9 | 0.00 | 0.03 | 0.00 | 76 | 1016.5 |
| 20260905110025 | 57 | 236 | 0.0 | 0.0 | 0.00 | 0.03 | 0.00 | 76 | 1016.5 |
| 20260905104523 | 57 | 233 | 0.0 | 0.0 | 0.00 | 0.03 | 0.00 | 75 | 1016.6 |
| 20260905103028 | 57 | 233 | 0.0 | 0.0 | 0.00 | 0.03 | 0.00 | 75 | 1016.8 |
| 20260905101520 | 58 | 233 | 0.0 | 0.0 | 0.00 | 0.03 | 0.00 | 74 | 1016.7 |
| 20260905100020 | 58 | 234 | 0.0 | 0.9 | 0.00 | 0.03 | 0.00 | 74 | 1016.8 |
| 20260905094516 | 58 | 233 | 0.0 | 0.0 | 0.00 | 0.03 | 0.00 | 72 | 1016.9 |
| 20260905093016 | 59 | 233 | 0.0 | 0.0 | 0.00 | 0.03 | 0.00 | 72 | 1016.8 |
| 20260905091514 | 59 | 233 | 0.0 | 0.0 | 0.00 | 0.03 | 0.00 | 71 | 1016.8 |
| 20260905090012 | 60 | 233 | 0.0 | 0.0 | 0.00 | 0.03 | 0.00 | 70 | 1016.9 |
| 20260905084509 | 61 | 234 | 0.0 | 0.0 | 0.00 | 0.03 | 0.00 | 68 | 1016.9 |
| 20260905083009 | 61 | 233 | 0.0 | 0.0 | 0.00 | 0.03 | 0.00 | 67 | 1016.9 |
| 20260905081505 | 62 | 141 | 0.0 | 0.0 | 0.00 | 0.03 | 0.00 | 66 | 1016.9 |
| 20260905080004 | 62 | 238 | 0.0 | 0.0 | 0.00 | 0.03 | 0.00 | 65 | 1016.8 |
| 20260905074503 | 62 | 242 | 0.0 | 0.0 | 0.00 | 0.03 | 0.00 | 64 | 1016.7 |
| 20260905073003 | 62 | 242 | 0.0 | 0.0 | 0.00 | 0.03 | 0.00 | 64 | 1016.8 |
| 20260905071601 | 62 | 242 | 0.0 | 0.0 | 0.00 | 0.03 | 0.00 | 63 | 1016.8 |
| 20260905064616 | 63 | 132 | 0.0 | 0.0 | 0.00 | 0.03 | 0.00 | 62 | 1016.8 |
| 20260905063058 | 64 | 132 | 0.0 | 0.9 | 0.00 | 0.03 | 0.00 | 59 | 1016.7 |
| 20260905061551 | 65 | 132 | 0.0 | 2.6 | 0.00 | 0.03 | 0.00 | 58 | 1016.6 |
| 20260905060048 | 66 | 130 | 0.0 | 1.7 | 0.00 | 0.03 | 0.00 | 56 | 1016.4 |
| 20260905054550 | 66 | 117 | 0.0 | 0.9 | 0.00 | 0.03 | 0.03 | 54 | 1016.2 |
| 20260905053047 | 66 | 210 | 0.0 | 0.9 | 0.00 | 0.03 | 0.03 | 52 | 1016.3 |
| 20260905051548 | 67 | 275 | 0.0 | 2.6 | 0.00 | 0.03 | 0.03 | 52 | 1016.2 |
| 20260905050053 | 67 | 280 | 0.0 | 1.7 | 0.00 | 0.03 | 0.03 | 51 | 1016.6 |
| 20260905044546 | 68 | 155 | 0.0 | 3.5 | 0.00 | 0.03 | 0.03 | 48 | 1016.6 |
| 20260905043045 | 68 | 115 | 0.0 | 0.9 | 0.00 | 0.03 | 0.03 | 47 | 1016.7 |
| 20260905041544 | 68 | 108 | 0.0 | 2.6 | 0.00 | 0.03 | 0.03 | 45 | 1016.6 |
| 20260905040044 | 68 | 271 | 0.0 | 1.7 | 0.00 | 0.03 | 0.03 | 46 | 1016.4 |
| 20260905034544 | 69 | 260 | 0.0 | 0.9 | 0.00 | 0.03 | 0.03 | 45 | 1016.5 |
| 20260905033043 | 70 | 221 | 0.0 | 0.9 | 0.00 | 0.03 | 0.03 | 43 | 1016.2 |
| 20260905031543 | 71 | 125 | 0.0 | 2.6 | 0.00 | 0.03 | 0.03 | 42 | 1016.0 |
| 20260905030042 | 71 | 125 | 0.0 | 1.7 | 0.00 | 0.03 | 0.03 | 41 | 1015.8 |
| 20260905024548 | 71 | 110 | 0.0 | 0.9 | 0.00 | 0.03 | 0.03 | 42 | 1015.3 |
| 20260905023042 | 72 | 121 | 0.0 | 1.7 | 0.00 | 0.03 | 0.03 | 41 | 1015.1 |
| 20260905021543 | 72 | 257 | 0.9 | 1.7 | 0.00 | 0.03 | 0.03 | 42 | 1014.9 |
| 20260905020040 | 71 | 265 | 0.0 | 0.9 | 0.00 | 0.03 | 0.03 | 43 | 1014.7 |
| 20260905014551 | 71 | 268 | 0.0 | 2.6 | 0.00 | 0.03 | 0.03 | 46 | 1014.6 |
| 20260905013040 | 70 | 275 | 0.0 | 0.9 | 0.03 | 0.03 | 0.03 | 50 | 1014.5 |
| 20260905011538 | 70 | 275 | 0.0 | 0.9 | 0.03 | 0.03 | 0.03 | 55 | 1014.3 |
| 20260905010039 | 69 | 132 | 0.0 | 1.7 | 0.03 | 0.03 | 0.03 | 59 | 1014.2 |
| 20260905004538 | 77 | 262 | 0.0 | 4.3 | 0.03 | 0.03 | 0.03 | 39 | 1014.4 |
| 20260905003037 | 80 | 117 | 0.0 | 3.5 | 0.00 | 0.00 | 0.00 | 30 | 1014.2 |
| 20260905001536 | 80 | 169 | 1.7 | 7.0 | 0.00 | 0.00 | 0.00 | 29 | 1014.2 |
| 20260905000038 | 80 | 108 | 0.9 | 4.3 | 0.00 | 0.00 | 0.00 | 29 | 1014.1 |
| 20260904234536 | 80 | 141 | 1.7 | 7.8 | 0.00 | 0.00 | 0.00 | 28 | 1014.0 |
| 20260904233035 | 80 | 119 | 0.9 | 7.0 | 0.00 | 0.00 | 0.00 | 28 | 1013.7 |
| 20260904231535 | 82 | 125 | 1.7 | 7.0 | 0.00 | 0.00 | 0.00 | 27 | 1013.7 |
| 20260904230034 | 84 | 140 | 4.3 | 11.3 | 0.00 | 0.00 | 0.00 | 26 | 1013.6 |
| 20260904224534 | 84 | 123 | 6.1 | 11.3 | 0.00 | 0.00 | 0.00 | 26 | 1013.6 |
| 20260904223043 | 83 | 109 | 3.5 | 9.6 | 0.00 | 0.00 | 0.00 | 27 | 1013.7 |
| 20260904221544 | 81 | 114 | 4.3 | 10.4 | 0.00 | 0.00 | 0.00 | 27 | 1013.8 |
| 20260904220035 | 82 | 113 | 2.6 | 7.8 | 0.00 | 0.00 | 0.00 | 27 | 1013.9 |
| 20260904214536 | 83 | 127 | 5.2 | 8.7 | 0.00 | 0.00 | 0.00 | 26 | 1014.0 |
| 20260904213031 | 84 | 110 | 4.3 | 8.7 | 0.00 | 0.00 | 0.00 | 24 | 1014.0 |
| 20260904211535 | 84 | 125 | 1.7 | 5.2 | 0.00 | 0.00 | 0.00 | 23 | 1014.2 |
| 20260904210032 | 84 | 123 | 0.0 | 3.5 | 0.00 | 0.00 | 0.00 | 24 | 1014.4 |
| 20260904204529 | 85 | 115 | 1.7 | 7.0 | 0.00 | 0.00 | 0.00 | 23 | 1014.5 |
| 20260904203032 | 87 | 110 | 0.0 | 11.3 | 0.00 | 0.00 | 0.00 | 22 | 1014.5 |
| 20260904201531 | 87 | 142 | 0.9 | 3.5 | 0.00 | 0.00 | 0.00 | 21 | 1014.7 |
| 20260904200027 | 86 | 277 | 1.7 | 7.0 | 0.00 | 0.00 | 0.00 | 21 | 1015.0 |
| 20260904194600 | 86 | 137 | 0.9 | 5.2 | 0.00 | 0.00 | 0.00 | 23 | 1015.1 |
| 20260904193036 | 85 | 220 | 2.6 | 6.1 | 0.00 | 0.00 | 0.00 | 23 | 1015.1 |
| 20260904191523 | 85 | 110 | 3.5 | 9.6 | 0.00 | 0.00 | 0.00 | 23 | 1015.2 |
| 20260904190022 | 84 | 130 | 0.9 | 7.0 | 0.00 | 0.00 | 0.00 | 24 | 1015.3 |
| 20260904184521 | 85 | 128 | 1.7 | 6.1 | 0.00 | 0.00 | 0.00 | 22 | 1015.5 |
| 20260904183019 | 83 | 85 | 0.0 | 5.2 | 0.00 | 0.00 | 0.00 | 23 | 1015.8 |
| 20260904181517 | 82 | 110 | 2.6 | 8.7 | 0.00 | 0.00 | 0.00 | 24 | 1015.8 |
| 20260904180019 | 83 | 227 | 1.7 | 7.0 | 0.00 | 0.00 | 0.00 | 23 | 1016.1 |